Regional Weather Roundup
Issued by NWS

Home | Current Version | Previous Version | Text Only | Print | Product List | Glossary Off
Versions: 1 2 3 4 5 6 7 8 9 10 11 12 13 14 15 16 17 18 19 20 21 22 23 24 25 26 27 28 29 30 31 32 33 34 35 36 37 38 39 40 41 42 43 44 45 46 47 48 49 50

000
ASUS43 KLOT 261758
RWRIL

ILLINOIS REGIONAL WEATHER ROUNDUP
NATIONAL WEATHER SERVICE CHICAGO/ROMEOVILLE IL
1200 PM CST MON JAN 26 2015

NOTE: "FAIR" INDICATES FEW OR NO CLOUDS BELOW 12,000 FEET WITH NO
SIGNIFICANT WEATHER AND/OR OBSTRUCTIONS TO VISIBILITY.

* THESE STATIONS ARE NOT UNDER NWS QUALITY CONTROL. THEY ALSO MAY NOT
  REPORT WEATHER SUCH AS PRECIPITATION OR FOG.

ILZ001-002-007-009-015-016-024-261900-
NORTHWEST ILLINOIS

CITY           SKY/WX    TMP DP  RH WIND       PRES   REMARKS
MOLINE         CLOUDY    26  22  84 S7        29.86F WCI  18
6HR MIN TEMP:  18; 6HR MAX TEMP:  26; 6HR PCP:  0.07;

$$

ILZ003-004-008-010-011-017-018-261900-
NORTH CENTRAL ILLINOIS

CITY           SKY/WX    TMP DP  RH WIND       PRES   REMARKS
ROCKFORD       LGT SNOW  23  18  81 S8        29.90F WCI  14
$$

ILZ005-006-012>014-019>023-261900-
NORTHEAST ILLINOIS

CITY           SKY/WX    TMP DP  RH WIND       PRES   REMARKS
CHICAGO-OHARE  CLOUDY    25  16  68 SW5       29.90F WCI  19
6HR MIN TEMP:  15; 6HR MAX TEMP:  25;

CHICAGO-MIDWAY NOT AVBL
AURORA         CLOUDY    25  17  72 S7        29.91F WCI  17
6HR MIN TEMP:  14; 6HR MAX TEMP:  25;

WAUKEGAN       NOT AVBL
DUPAGE AIRPORT CLOUDY    25  17  72 S7        29.89F WCI  17
6HR MIN TEMP:  13; 6HR MAX TEMP:  25;

WHEELING       CLOUDY    26  16  65 S5        29.91F WCI  20
6HR MIN TEMP:  15; 6HR MAX TEMP:  26;

NORTHERLY ISL    N/A     26  18  71 S3          N/A
$$

LMZ740>746-261900-
SOUTHERN LAKE MICHIGAN

STATION/POSITION SKY/WX   TEMP    WIND        PRES    VSBY  WAVE
                          AIR SEA DIR/SP/G                  HT/PER
                          (F)     (DEG/KT/KT) (MB)    (MI)  (FT/S)
WAUKEGAN HARBOR            24     190/  4/  7   N/A
HARRISON CRIB              23     170/  7/  9   N/A
BURNHAM HARBOR             26     230/  5/  7   N/A
CALUMET HARBOR             25     190/  5/  8   N/A
MICHIGAN CITY              20     200/  1/  3   N/A
$$

ILZ025>027-034>036-040-047-049-050-058-095>099-261900-
WEST-CENTRAL ILLINOIS

CITY           SKY/WX    TMP DP  RH WIND       PRES   REMARKS
$$

ILZ028>032-037-038-041>044-048-051>054-059>061-261900-
CENTRAL ILLINOIS

CITY           SKY/WX    TMP DP  RH WIND       PRES   REMARKS
PEORIA         LGT SNOW  25  21  85 S8        29.93F VSB 1   WCI  16
SPRINGFIELD    LGT SNOW  28  23  81 SW5       29.97R WCI  23
TAYLORVILLE    NOT AVBL
$$

ILZ033-039-045-046-055>057-062-063-261900-
EAST-CENTRAL ILLINOIS

CITY           SKY/WX    TMP DP  RH WIND       PRES   REMARKS
$$

ILZ079-100>102-261900-
SOUTHWEST ILLINOIS

CITY           SKY/WX    TMP DP  RH WIND       PRES   REMARKS
ALTON          CLOUDY    30  25  80 S10       29.96F WCI  21
BELLEVILLE     PTSUNNY   32  27  80 SW5       29.98F WCI  27
CAHOKIA*       CLOUDY    34  26  72 SW7       29.99F WCI  28
$$

ILZ064>066-069>071-074>076-080>082-084>086-088>090-092>094-261900-
SOUTH-CENTRAL ILLINOIS

CITY           SKY/WX    TMP DP  RH WIND       PRES   REMARKS
CARBONDALE     CLOUDY    33  23  66 W8        30.03F WCI  26
6HR MIN TEMP:  26; 6HR MAX TEMP:  33;

MARION         CLOUDY    32  25  74 NW12      30.03F WCI  23
$$

ILZ067-068-072-073-078-083-087-091-261900-
SOUTHEAST ILLINOIS

CITY           SKY/WX    TMP DP  RH WIND       PRES   REMARKS
CARMI*         CLOUDY    32  27  80 W10       30.02F WCI  24
$$

ABBREVIATIONS USED IN REMARKS
   TC - TEMPERATURE IN CELSIUS
  WCI - WIND CHILL INDEX
   HX - HEAT INDEX
  VSB - VISIBILITY
$$




USA.gov is the U.S. government's official web portal to all federal, state and local government web resources and services.